GFSSE_sfc_dewp_105.txt.gz
Dewpoint
65 70 72 73 73 72 72 72 73 73 74 74 73 73 73 73 73 73 73 74 74 74 74 73 73 74 72 73 73 73 72 72 72 72 71 72 72 71 71 72 71 67 72
66 70 72 72 72 72 72 72 72 73 74 74 73 73 73 73 73 73 73 74 74 74 73 72 73 73 73 73 73 72 72 72 71 71 72 72 71 71 71 71 70 69 72
68 70 71 72 72 72 72 72 72 73 74 74 74 73 73 73 73 73 73 73 74 74 73 72 72 72 72 72 71 72 71 71 71 71 72 67 68 71 71 71 71 71 71
68 70 71 72 72 72 72 72 72 73 74 74 74 74 73 73 73 73 73 73 74 74 73 72 72 73 72 71 71 71 71 71 71 71 68 68 67 71 71 71 70 70 70
68 69 70 72 72 72 72 72 72 72 73 73 73 74 73 73 73 73 73 73 73 73 73 72 72 73 71 70 70 70 71 71 70 68 67 68 67 69 70 70 70 70 70
68 69 71 71 71 72 72 72 72 72 72 72 73 73 73 73 73 73 73 73 74 73 73 73 73 72 70 70 70 70 70 70 69 67 67 68 68 70 70 70 70 70 70
69 70 71 70 71 72 72 72 72 71 71 71 72 72 73 73 73 73 73 73 73 73 73 73 72 70 70 70 70 70 69 69 67 68 67 67 69 70 70 70 70 70 70
69 70 71 71 71 71 71 71 70 70 70 71 71 72 72 73 72 72 72 72 72 72 72 72 70 70 70 70 70 69 68 68 68 68 68 67 69 70 70 70 70 70 70
70 70 71 72 71 70 69 70 69 70 70 70 70 71 71 71 71 71 72 72 71 71 70 71 70 69 70 69 68 68 67 67 68 68 68 67 70 69 69 69 69 70 69
69 70 70 70 70 72 72 68 69 69 69 69 70 70 70 70 70 71 70 71 71 71 70 70 69 69 69 68 68 67 66 67 68 68 68 68 69 70 69 69 69 69 69
67 67 68 69 69 70 71 71 70 70 69 69 70 69 69 70 71 70 69 69 70 69 69 69 68 68 68 67 67 66 66 66 67 67 68 67 68 69 69 69 69 69 69
65 66 67 67 68 69 68 71 71 70 70 71 70 70 70 71 70 69 69 68 68 67 68 68 68 67 67 67 67 66 67 68 67 68 68 66 68 69 69 68 69 69 68
62 64 66 66 67 67 67 68 68 69 69 69 71 71 70 70 71 69 69 70 70 68 68 68 68 68 68 68 68 66 67 67 66 67 67 66 67 68 68 68 68 68 68
63 63 65 65 65 66 66 67 67 66 68 68 70 71 71 70 70 69 68 70 70 69 69 69 69 69 68 68 68 67 66 67 67 68 66 64 66 67 68 68 68 67 67
60 65 65 65 65 65 66 66 66 66 67 68 69 70 70 68 69 69 69 69 69 69 68 68 68 67 67 67 67 67 66 66 66 67 67 64 64 66 67 68 68 67 66
35 55 66 66 66 66 66 66 65 66 66 67 68 68 69 69 68 68 67 68 68 68 67 67 67 67 66 66 66 66 66 66 65 64 65 65 63 64 66 68 68 67 66
30 33 58 65 65 66 66 67 67 65 66 65 66 67 66 67 67 67 67 67 67 67 67 67 66 66 66 65 65 66 65 65 65 64 64 64 64 62 63 67 67 67 66
28 32 39 57 66 67 66 67 67 66 66 65 65 66 66 66 67 67 66 66 66 66 66 66 65 64 65 64 64 65 65 65 63 63 63 64 64 64 63 64 65 66 66
31 31 34 44 60 66 67 67 67 66 65 66 65 65 66 66 66 66 66 66 65 64 65 65 64 64 64 63 63 64 64 63 62 63 62 63 63 63 63 63 63 63 64
50 48 38 38 46 64 67 67 67 65 66 65 64 65 65 65 65 66 66 66 65 64 64 64 63 63 63 63 62 62 63 63 63 63 62 63 63 63 62 63 64 64 62
50 51 52 51 44 51 62 65 64 63 64 64 64 66 65 65 64 65 66 65 64 64 63 63 63 62 61 62 61 61 61 63 63 62 63 63 63 62 62 62 64 61 62
47 49 49 51 52 50 56 62 63 63 64 64 65 65 65 65 65 65 65 64 64 63 63 63 62 61 61 61 59 58 55 57 61 62 62 63 62 62 61 61 62 61 60
44 46 46 48 50 53 55 62 65 64 64 64 64 64 64 66 65 65 65 64 63 63 63 63 63 62 59 61 61 58 54 54 56 60 61 61 62 62 62 61 61 61 60
42 43 44 46 49 51 55 59 62 60 60 62 63 63 64 64 64 65 64 64 64 63 64 63 63 62 61 59 60 60 58 57 55 54 57 59 61 61 61 60 60 60 59
40 40 42 43 46 50 52 56 61 61 61 63 63 64 65 64 64 64 64 64 64 64 63 63 63 62 61 60 59 59 57 56 56 55 54 56 57 59 60 59 59 60 58
38 39 40 41 43 46 50 54 60 62 62 61 63 63 64 63 63 64 64 64 64 63 63 64 62 62 61 61 60 60 58 55 54 54 54 55 55 56 58 58 58 59 58

GFSSE_sfc_dewp_111.txt.gz
Dewpoint
55 68 72 73 73 73 73 74 74 73 73 73 73 74 74 74 74 74 74 74 74 74 74 73 73 73 72 72 72 72 72 72 72 73 73 72 71 71 71 72 71 67 72
59 69 71 72 73 73 74 74 74 73 73 73 73 73 74 74 74 74 74 74 74 74 74 74 73 73 72 73 74 73 73 72 72 72 73 72 71 71 70 71 71 69 72
59 70 71 72 73 73 73 74 74 73 73 74 74 74 74 74 74 74 74 74 74 74 74 73 73 73 73 74 73 73 72 72 72 72 73 66 68 71 70 70 71 72 72
60 68 69 72 72 73 73 73 74 74 74 74 73 74 74 74 74 74 74 74 74 74 74 72 72 73 74 73 72 72 72 71 71 71 68 64 65 71 70 70 71 71 71
62 66 68 71 71 72 72 73 74 74 74 73 73 74 74 74 74 74 73 73 74 74 73 72 72 74 72 71 71 71 71 71 71 70 64 62 63 69 70 70 70 71 70
63 64 70 70 71 72 72 73 73 73 73 73 73 73 74 74 74 73 73 73 74 74 74 73 73 73 71 70 70 71 71 70 70 65 64 66 65 71 70 71 70 70 70
63 66 71 70 70 71 72 72 73 73 73 73 73 73 73 73 73 73 73 73 74 74 74 73 73 72 70 70 70 70 70 70 67 62 65 65 68 71 70 70 70 70 69
64 67 71 71 71 71 71 71 71 71 72 72 73 73 73 73 73 72 72 73 73 73 73 73 72 71 70 70 70 69 69 69 66 66 62 62 70 71 70 70 70 69 70
67 69 70 71 71 71 70 70 70 70 71 71 72 72 72 72 71 72 72 73 73 72 72 72 71 70 70 69 69 69 68 69 66 61 61 65 70 70 70 70 70 69 69
69 70 71 72 71 71 71 70 69 69 70 70 71 71 71 71 71 71 71 71 72 72 72 71 71 70 69 69 69 68 68 68 66 64 64 65 70 70 70 70 70 70 70
68 69 71 72 72 72 71 70 70 70 70 70 70 70 70 70 71 70 69 70 71 70 70 70 70 69 69 69 68 68 68 65 63 60 64 68 69 70 70 70 70 70 70
65 68 70 71 71 71 69 71 70 69 68 68 68 69 69 68 68 66 67 70 70 69 69 69 69 68 68 65 66 67 66 63 62 60 60 67 68 69 69 69 69 70 70
57 66 68 70 71 70 69 68 68 68 68 68 69 68 68 67 68 66 67 68 70 69 68 68 68 67 66 64 65 65 64 63 62 64 65 66 68 69 68 68 68 69 68
52 62 67 67 70 70 68 67 66 66 69 67 67 71 70 67 68 67 63 66 69 69 67 67 65 67 66 65 66 65 65 68 63 65 67 66 66 67 68 68 67 69 68
33 53 64 66 67 68 69 66 66 66 67 68 68 68 68 64 68 65 65 63 66 68 67 66 66 66 67 66 66 65 65 66 66 64 69 65 65 66 68 66 67 67 68
31 32 42 60 66 66 67 67 65 66 65 66 67 67 70 66 66 64 64 63 61 65 68 65 65 65 66 67 66 65 66 66 66 65 63 65 64 65 66 66 66 64 68
30 30 35 47 58 65 66 66 65 63 64 63 64 68 69 67 68 69 66 64 62 62 69 69 68 65 65 65 66 65 67 65 65 64 64 63 63 62 64 65 66 65 65
38 42 44 41 44 57 64 63 64 63 62 62 63 65 68 66 67 69 67 66 65 64 63 66 65 65 65 64 64 64 65 65 65 64 64 63 62 64 62 63 63 62 64
44 49 49 53 52 48 53 59 63 66 64 62 64 63 67 67 66 67 67 67 68 67 64 65 66 66 64 63 63 65 65 64 64 66 64 64 63 64 65 62 62 62 64
47 50 50 52 54 56 53 52 56 58 61 64 64 64 67 65 66 67 66 67 67 67 67 64 66 66 64 62 61 62 64 64 65 66 64 62 62 63 64 64 63 62 61
49 49 50 51 53 53 52 49 45 55 58 61 62 66 67 66 66 67 66 67 67 66 66 66 67 66 65 64 65 64 63 64 64 65 64 63 62 61 63 63 64 64 63
46 48 48 48 50 51 51 52 52 51 53 56 61 63 65 67 68 67 67 66 67 66 65 65 65 65 65 65 62 61 59 61 63 62 63 63 62 63 61 62 63 63 64
44 45 45 46 47 49 51 50 52 53 53 56 57 58 62 66 68 67 66 67 67 65 64 65 65 64 62 64 63 59 57 55 58 60 62 62 62 62 61 63 62 62 64
42 45 45 45 46 46 48 49 51 51 52 49 56 56 60 64 66 67 67 66 67 66 65 65 65 64 63 61 62 61 60 57 55 52 59 60 62 62 63 63 64 62 63
41 42 44 44 44 45 46 48 48 50 51 53 55 59 61 62 65 65 66 66 67 66 66 66 64 65 64 62 61 61 61 59 58 55 53 57 59 61 62 63 64 64 63
39 41 43 43 42 43 44 46 46 47 49 51 54 56 60 60 64 64 65 65 66 66 65 66 66 65 64 63 62 61 60 59 57 56 55 54 55 58 60 63 63 63 63

GFSSE_sfc_dewp_114.txt.gz
Dewpoint
66 69 72 73 73 74 74 74 73 73 73 74 74 74 74 74 74 74 74 74 74 75 75 75 74 73 72 71 72 72 72 72 72 73 73 72 72 72 72 72 72 68 72
69 69 71 72 73 74 74 74 73 73 73 74 74 74 74 74 74 74 74 74 74 74 74 74 73 73 72 73 73 73 72 71 72 72 73 72 71 71 71 71 71 70 71
69 70 70 72 73 73 74 74 74 73 74 74 74 74 74 74 74 74 74 73 74 75 75 73 73 73 73 73 73 73 72 71 71 72 72 68 69 71 70 71 71 71 71
68 68 70 72 72 73 73 74 74 74 74 74 74 74 74 74 74 74 73 73 73 75 74 73 73 74 74 73 72 72 71 71 71 71 70 68 66 71 71 71 71 71 72
64 69 70 71 72 73 73 73 73 73 73 73 73 74 74 74 74 74 73 73 74 74 74 72 73 74 73 71 71 71 71 70 70 70 68 66 66 70 71 71 71 71 70
65 68 70 71 71 72 73 73 73 73 73 73 73 74 74 74 74 74 73 73 74 74 74 73 73 73 71 70 70 70 70 70 70 69 68 66 66 71 71 71 70 70 70
68 71 70 70 71 72 73 73 73 73 72 72 73 73 73 73 74 73 73 73 74 74 74 73 73 71 70 70 70 70 70 70 68 67 68 64 69 71 71 71 70 70 70
70 72 71 71 71 71 72 72 72 72 72 72 72 73 73 73 73 73 72 73 73 73 73 73 72 71 70 70 70 69 69 69 68 67 62 67 68 71 70 70 70 70 70
71 73 72 71 70 71 70 70 70 71 71 72 72 72 72 72 72 72 72 72 72 72 72 72 71 70 70 69 69 69 68 69 68 66 67 67 69 71 70 70 70 70 70
71 73 73 72 71 71 71 70 70 70 70 71 71 71 71 71 71 71 71 72 72 72 71 71 71 70 69 69 68 68 68 68 68 66 67 68 69 70 70 70 70 70 70
70 72 73 72 71 71 71 70 70 70 70 70 71 71 70 71 71 71 70 70 71 70 70 71 70 69 68 68 68 68 68 67 65 63 68 67 68 70 70 71 70 70 69
67 70 72 73 72 72 68 70 70 69 69 70 70 71 71 71 71 69 69 69 70 70 70 70 69 68 68 67 68 68 67 66 64 63 67 68 68 66 70 70 69 68 67
49 68 71 71 71 71 71 71 69 69 68 69 69 70 70 69 70 68 69 68 70 69 69 69 69 68 67 66 66 67 66 65 64 67 67 68 68 69 70 69 69 68 68
41 65 69 70 70 71 70 70 70 68 69 68 68 70 69 68 68 69 66 68 69 68 68 68 67 67 67 66 66 67 66 65 64 66 66 66 67 69 69 68 68 68 68
48 60 68 69 70 70 70 69 71 68 69 69 69 70 69 68 68 68 67 67 68 68 68 67 67 67 66 66 67 65 66 66 65 66 68 65 65 67 69 68 67 67 67
41 44 61 65 68 70 70 70 69 70 69 69 69 70 70 68 67 67 66 67 67 67 67 67 65 64 66 66 66 66 65 66 66 66 67 65 65 65 66 68 67 66 66
37 43 51 50 56 64 68 68 68 68 67 69 68 69 69 69 68 67 67 66 65 67 67 67 67 66 66 66 65 66 66 66 65 66 65 65 63 63 64 65 66 66 64
44 51 54 53 56 57 57 67 67 66 67 65 67 68 68 68 67 69 67 67 67 65 67 67 66 65 65 66 65 66 66 65 65 65 65 64 64 63 62 63 64 65 64
46 51 53 56 58 59 58 57 59 65 67 65 65 66 67 66 67 67 67 67 67 67 66 66 66 65 64 64 64 65 65 64 64 65 64 64 64 63 63 62 61 62 63
50 52 53 54 57 58 58 59 56 53 63 65 65 64 66 66 66 67 66 67 66 66 66 66 64 65 64 64 63 63 64 64 64 65 64 64 63 63 63 63 62 61 61
50 50 50 53 55 54 54 54 55 54 54 62 63 66 66 66 66 66 66 68 66 65 65 65 65 65 64 65 63 62 63 63 64 64 64 64 63 62 63 62 63 62 61
47 48 48 48 49 50 50 51 53 54 55 55 56 59 64 66 66 66 66 66 67 65 64 65 66 64 64 65 61 60 58 60 62 63 63 63 62 62 62 62 63 62 62
46 47 45 46 47 48 50 48 50 52 54 55 53 53 61 64 67 66 66 66 66 65 64 63 65 64 62 63 63 59 55 54 57 61 62 62 62 62 62 61 62 62 63
44 46 45 46 45 45 47 47 48 48 49 51 52 54 56 60 60 66 65 66 66 66 64 63 65 64 62 61 63 61 59 57 55 55 59 61 61 61 62 62 62 62 62
42 43 45 44 43 43 45 46 46 46 47 48 49 51 53 57 59 63 65 66 66 66 65 63 63 64 63 61 61 61 60 59 59 56 55 57 61 61 62 62 63 62 62
40 42 43 42 41 42 43 43 44 44 44 45 47 48 51 53 57 62 63 65 65 65 65 64 64 64 62 62 61 60 60 59 57 56 55 55 57 58 61 62 62 63 62

GFSSE_sfc_dewp_117.txt.gz
Dewpoint
68 71 72 73 74 73 73 72 73 73 73 74 74 74 74 74 73 74 74 74 74 75 75 74 74 73 72 72 72 72 72 72 72 72 72 72 72 72 72 72 71 69 72
69 71 72 73 73 74 73 72 72 73 74 74 74 74 74 74 73 74 73 74 74 75 74 74 73 72 72 72 72 71 71 72 72 72 72 72 72 71 71 72 71 70 72
69 71 71 72 73 73 74 73 73 73 74 74 74 74 74 74 74 73 73 73 74 74 74 73 73 72 73 73 72 72 71 71 71 71 72 70 70 71 70 70 71 71 71
68 70 71 72 72 73 73 73 73 73 74 74 74 74 73 73 73 74 73 73 74 75 74 72 72 73 73 73 72 72 71 71 70 71 71 69 67 71 70 72 71 71 72
68 69 70 71 72 72 73 73 73 73 73 73 73 74 73 73 74 73 73 72 73 75 74 73 73 73 72 72 70 70 70 70 70 70 68 68 68 70 71 72 71 71 70
68 68 70 70 71 72 73 73 73 73 72 72 73 73 74 74 74 73 72 72 74 74 74 73 73 73 71 70 70 70 70 70 69 67 67 67 67 70 70 71 71 71 70
69 69 70 70 71 72 73 73 72 72 72 72 72 73 73 73 73 72 72 72 73 73 73 73 73 71 70 69 69 69 69 69 69 67 66 66 65 68 69 70 71 70 70
70 70 70 71 71 71 72 72 72 72 71 71 72 72 73 72 72 72 72 72 72 73 72 72 72 71 69 69 69 69 69 69 68 66 65 65 63 67 70 70 70 70 69
71 70 70 70 71 70 70 70 70 71 71 71 71 72 72 72 71 72 72 72 72 72 72 72 71 71 70 69 69 68 68 68 67 65 67 65 65 67 70 70 70 70 69
70 71 70 70 70 69 69 69 70 70 70 70 71 71 70 71 71 71 71 71 72 71 71 71 71 70 69 69 68 68 68 68 67 67 67 66 66 69 70 70 70 70 69
68 72 71 69 69 69 69 69 70 70 70 70 71 70 70 71 71 71 70 70 71 70 70 70 70 69 68 68 68 68 67 67 67 66 66 67 69 69 70 70 70 69 69
67 69 71 70 70 69 69 69 68 69 69 70 71 70 71 70 70 70 70 69 69 69 69 69 69 69 68 68 67 68 67 67 66 66 67 67 68 69 69 70 69 69 68
63 68 71 70 70 70 68 69 69 68 68 69 69 70 70 70 70 69 69 69 69 69 69 69 69 68 67 67 66 67 67 66 66 66 66 67 68 68 68 70 70 69 69
40 69 70 70 70 70 70 69 68 68 67 68 68 69 69 68 69 69 68 68 69 69 68 68 68 68 67 67 66 67 66 66 65 66 66 65 66 69 69 69 70 69 68
33 68 69 69 69 69 68 70 70 69 67 67 67 68 69 67 67 67 67 68 68 68 68 67 67 67 67 66 66 66 66 66 65 66 64 64 65 67 69 69 69 69 68
38 52 51 65 69 69 67 68 68 69 69 68 68 68 68 68 66 67 67 67 68 68 68 67 67 66 66 66 66 66 65 65 65 65 65 64 63 65 67 69 69 69 68
49 51 51 52 54 57 65 67 68 68 69 69 68 68 69 68 67 65 66 66 67 68 67 67 66 65 65 65 65 65 65 65 65 65 65 64 63 63 64 67 68 68 68
48 50 52 54 55 56 56 59 65 67 67 68 68 68 68 68 67 67 65 65 65 67 67 67 66 65 64 65 64 64 65 65 65 65 65 64 63 63 62 63 65 67 67
49 50 51 52 53 54 55 58 58 58 60 66 67 68 67 66 67 67 66 66 66 66 67 66 65 64 63 64 64 64 64 64 64 65 64 64 63 62 61 61 62 63 64
48 47 48 50 51 51 52 53 54 55 54 58 64 66 67 67 66 68 66 66 66 66 66 66 65 64 63 63 63 63 63 63 63 63 63 64 63 62 62 61 60 61 61
45 45 46 47 48 48 48 48 49 51 52 54 57 59 60 67 65 65 67 66 66 65 64 65 64 64 62 63 62 60 61 61 62 62 63 63 63 62 62 62 61 61 61
44 45 45 45 45 46 46 46 48 49 52 52 55 56 58 59 63 66 66 66 66 65 64 64 63 61 63 64 60 58 58 57 60 62 62 62 62 62 62 62 61 61 61
43 43 43 44 43 45 45 45 46 47 48 49 49 51 52 54 57 62 65 65 66 66 65 64 64 63 62 62 62 59 55 53 55 59 61 62 61 61 61 61 61 61 61
40 42 42 42 42 42 42 43 43 44 44 45 46 47 48 49 52 55 59 64 65 65 65 64 65 64 63 61 61 60 57 56 52 52 57 61 61 61 60 61 61 61 61
38 40 40 40 40 40 40 40 41 41 42 43 44 44 45 47 49 50 55 58 63 64 64 64 63 64 63 62 61 61 59 57 56 54 53 56 59 60 61 61 61 61 61
37 38 38 38 38 38 38 38 38 38 38 39 40 41 43 45 47 49 52 56 60 63 64 64 63 63 64 63 61 60 60 58 56 55 53 54 57 58 61 61 61 62 61

GFSSE_sfc_dewp_123.txt.gz
Dewpoint
70 71 72 73 73 73 72 72 72 72 73 73 74 74 74 74 74 74 74 74 75 75 75 74 73 72 72 70 71 71 71 72 71 73 72 72 72 72 71 72 72 70 71
70 72 72 73 73 73 73 72 72 72 73 73 73 74 74 74 74 74 74 74 75 75 74 74 73 72 71 70 71 71 71 71 71 71 72 71 72 71 71 72 71 70 72
69 72 72 72 73 73 73 73 73 73 73 73 73 73 73 74 74 74 74 74 74 74 74 73 72 72 72 72 70 70 70 70 71 71 72 70 69 71 71 71 71 71 71
70 71 72 72 72 72 72 72 73 73 73 73 73 73 73 73 74 74 74 74 74 74 73 72 72 72 72 72 70 70 70 70 70 70 69 69 69 70 69 70 71 71 71
69 71 71 72 72 72 72 72 72 73 73 73 72 73 73 73 73 73 73 73 74 74 73 72 72 73 72 71 70 70 70 70 70 69 68 67 67 68 68 70 71 71 71
69 70 70 70 71 72 72 72 72 72 72 72 72 72 73 73 73 73 72 73 74 74 73 73 74 72 71 70 70 69 69 69 68 67 66 67 66 67 69 70 70 71 70
68 69 70 70 71 72 72 72 72 72 71 72 72 72 72 73 73 72 72 73 74 74 74 73 73 71 70 70 69 69 69 69 67 65 65 67 66 68 68 70 69 70 70
68 69 70 70 71 71 72 71 71 71 71 71 71 72 72 72 72 72 72 72 73 73 72 72 71 70 70 69 69 68 68 68 66 65 65 65 67 68 68 70 70 70 70
69 69 69 70 71 70 70 70 70 70 70 70 71 71 71 71 70 71 71 71 72 72 71 71 71 70 69 69 68 67 67 68 66 65 64 63 64 69 69 71 70 70 70
68 68 68 68 69 69 70 69 69 69 70 70 70 70 70 70 70 70 70 70 71 71 71 71 70 70 69 68 68 67 67 67 66 65 64 65 66 69 70 71 70 70 70
68 67 67 67 68 68 69 70 70 70 70 69 70 69 69 70 70 70 69 69 70 70 70 70 70 69 68 67 67 67 67 66 66 66 65 66 66 69 69 70 70 70 70
67 67 67 67 67 67 69 69 69 69 70 69 69 69 70 69 69 70 69 68 69 69 69 69 69 68 68 67 66 67 66 66 65 65 65 66 67 67 68 70 70 70 70
65 68 68 67 67 67 67 67 68 70 69 70 70 70 69 69 69 70 69 69 69 69 69 69 68 69 67 66 66 66 65 65 65 65 65 65 67 68 69 70 70 70 69
32 41 65 67 67 66 67 67 67 68 68 68 69 69 69 68 68 68 69 68 68 69 69 69 69 69 68 67 66 65 65 65 65 65 64 65 67 69 70 70 70 70 70
55 62 67 69 67 67 66 67 66 67 68 68 68 69 69 68 67 68 68 68 67 67 68 68 68 68 67 67 66 65 65 65 65 65 64 64 65 67 69 68 69 69 70
54 56 57 60 65 68 67 67 67 67 67 67 67 67 69 69 68 68 68 68 67 67 67 67 67 67 67 67 66 65 65 65 65 65 64 64 63 64 66 67 69 70 69
53 54 54 54 54 56 58 60 61 65 67 67 67 68 67 68 68 67 67 67 67 68 67 67 67 67 67 66 65 65 65 65 65 64 64 64 63 62 63 66 68 69 69
51 50 50 50 51 51 52 55 57 57 59 61 64 65 66 67 68 66 66 66 67 66 67 66 67 66 66 65 65 65 65 65 65 64 64 64 63 63 62 63 65 67 68
47 46 46 47 47 48 48 50 51 52 53 56 58 61 61 63 64 63 62 66 65 65 66 66 66 66 65 65 65 65 64 64 64 64 64 63 63 62 61 62 62 63 65
44 44 44 44 44 45 46 46 48 47 48 51 54 54 57 57 59 62 61 61 62 64 64 65 65 65 65 65 64 63 63 64 64 64 64 64 63 62 61 61 61 62 62
42 42 42 42 42 42 43 43 45 43 45 46 50 49 53 51 52 54 59 60 63 62 62 64 65 64 63 62 61 61 60 61 62 63 64 63 62 62 61 61 60 61 62
39 40 39 40 39 40 41 42 42 42 45 45 44 45 48 46 49 50 52 56 59 60 63 63 64 63 63 63 61 59 58 59 60 61 62 62 62 62 61 60 60 59 61
36 37 37 36 36 37 38 38 38 40 40 42 39 40 42 43 45 47 49 51 53 56 58 60 63 62 61 62 63 59 55 55 56 59 61 62 61 62 62 61 60 59 59
36 35 34 35 34 34 35 36 36 37 36 38 38 38 39 40 42 45 47 49 50 52 54 56 60 62 61 58 62 62 61 58 55 53 59 61 61 61 62 62 61 60 60
35 33 33 33 33 33 33 33 34 34 35 36 36 36 37 39 40 41 44 46 47 49 51 54 56 59 63 60 60 59 59 59 57 54 53 57 60 61 62 62 62 61 60
34 32 31 32 31 31 31 31 32 32 32 33 34 35 36 38 39 40 41 42 43 45 47 49 53 55 60 62 60 59 58 56 56 55 54 54 57 59 61 61 61 61 61

GFSSE_sfc_dewp_129.txt.gz
Dewpoint
64 69 72 73 73 72 72 72 72 73 74 74 73 73 73 74 74 74 74 74 74 74 74 73 73 72 71 71 72 72 72 71 73 73 73 72 71 72 71 72 72 66 71
66 69 72 73 73 73 72 72 72 73 74 74 73 73 73 73 73 74 74 74 74 74 74 73 73 71 70 71 71 72 71 71 72 72 73 71 71 71 71 72 70 68 71
68 70 72 72 73 72 72 72 73 73 74 75 74 74 73 74 74 74 74 74 74 74 74 73 73 72 70 71 71 71 71 71 71 72 73 68 68 71 71 71 71 71 71
69 70 71 72 72 72 72 72 72 73 74 74 74 74 74 73 74 74 73 73 74 75 73 72 73 72 71 70 70 71 71 71 71 71 68 67 67 71 71 71 71 71 71
70 70 71 72 72 72 72 72 72 73 73 73 74 74 74 74 74 74 73 73 74 74 72 73 73 73 71 70 69 70 70 70 70 70 68 69 68 69 70 70 71 71 71
69 70 71 71 71 72 72 72 72 72 72 72 73 74 74 74 74 74 73 73 74 74 74 73 73 73 70 70 70 70 70 70 69 67 68 68 68 70 69 70 70 70 70
68 70 71 70 71 72 72 72 72 71 71 71 72 73 73 74 73 73 73 73 73 73 73 73 73 71 70 70 70 69 69 69 67 67 67 68 68 68 69 70 70 70 70
68 70 71 71 71 71 71 71 71 71 71 71 71 72 73 73 73 72 72 73 73 73 72 72 72 71 70 70 69 68 68 68 66 66 67 67 68 67 68 70 70 70 70
70 70 71 71 71 70 69 69 69 70 70 70 70 70 71 71 71 72 72 72 72 72 71 72 71 70 70 69 69 68 67 68 67 66 65 66 68 68 69 70 70 69 69
70 70 70 71 72 72 72 69 69 69 69 70 70 70 70 70 70 71 71 71 72 72 71 71 70 70 70 69 68 67 67 68 67 67 66 65 66 69 69 70 70 70 69
69 70 70 70 71 71 71 71 70 70 69 69 70 69 68 70 70 70 69 70 71 70 70 70 70 69 68 68 67 67 67 66 66 66 66 66 66 67 68 70 71 70 70
64 69 70 70 70 70 69 71 71 71 71 71 71 71 71 71 70 69 69 68 69 69 68 69 68 68 68 67 66 67 66 67 66 66 66 66 67 67 68 69 70 70 69
47 65 69 70 70 70 69 70 70 70 70 70 71 71 71 70 70 70 69 69 69 69 71 70 70 70 69 68 67 67 67 67 66 67 66 66 67 68 68 70 70 70 69
34 50 65 68 69 70 69 70 70 70 69 69 71 71 71 71 70 68 68 69 70 68 69 70 70 70 70 69 69 68 68 67 66 67 67 65 66 68 69 69 70 70 69
49 59 62 66 66 68 69 70 70 69 68 68 70 69 70 70 70 70 69 68 68 69 68 69 69 69 69 69 69 68 67 67 67 67 67 65 64 66 68 69 70 70 70
51 50 53 53 57 64 67 68 68 68 69 69 69 68 69 69 70 69 69 69 69 69 68 70 69 68 68 69 68 68 68 68 67 68 67 67 63 64 66 69 70 70 70
45 45 45 48 49 52 56 59 61 63 64 66 65 65 67 69 70 69 69 68 69 69 68 68 68 69 68 67 67 67 68 68 67 67 67 66 66 62 63 66 68 68 68
40 40 41 41 43 46 49 54 55 57 59 58 60 61 62 61 62 67 67 67 67 68 68 67 67 66 67 67 67 66 66 67 67 67 67 66 66 66 63 63 64 66 66
36 37 38 39 40 42 44 48 49 51 53 50 52 53 52 52 54 58 63 65 66 65 66 65 63 65 66 66 66 66 67 66 67 67 66 67 67 66 66 64 62 63 64
35 36 36 37 38 39 40 43 44 42 46 44 44 48 47 47 49 50 54 57 61 63 64 63 61 63 67 67 66 66 67 67 67 67 66 67 66 66 66 66 66 64 61
34 34 35 35 37 35 35 36 39 39 44 44 41 43 44 44 46 48 50 52 55 58 61 62 64 63 62 64 64 64 65 66 65 65 66 66 66 66 66 66 66 66 64
34 34 34 33 34 34 34 34 36 38 40 43 39 40 41 42 44 45 47 48 50 52 54 57 61 61 61 63 61 61 57 61 63 64 65 65 65 65 65 65 65 65 65
34 34 33 33 33 34 35 34 34 36 36 36 35 36 38 41 43 44 44 46 48 48 50 52 55 57 58 61 62 60 57 56 59 62 62 62 63 64 64 64 64 64 65
32 32 32 33 33 34 35 34 34 32 32 34 35 35 37 39 40 42 43 44 45 45 46 48 49 52 55 57 61 63 61 60 56 56 59 60 61 60 61 63 63 63 64
33 32 31 32 32 32 33 34 33 33 33 34 34 35 36 37 38 39 41 41 42 43 44 46 47 48 50 53 56 61 59 59 61 58 55 56 60 60 60 58 60 63 63
32 32 32 32 32 32 32 32 33 32 32 32 33 33 34 34 35 37 37 39 39 40 41 43 43 44 46 48 50 54 59 57 57 58 57 55 55 57 58 58 58 61 62

GFSSE_sfc_dewp_132.txt.gz
Dewpoint
61 69 73 73 72 72 72 73 73 74 74 74 74 74 74 74 73 74 74 74 75 75 74 72 72 72 72 71 72 72 71 72 73 73 73 72 72 72 72 72 72 66 71
63 69 72 72 72 72 73 73 73 74 74 74 73 74 74 74 73 74 74 74 74 74 74 73 71 71 71 71 72 72 71 72 73 73 73 72 71 71 71 71 71 68 72
66 68 72 72 72 72 72 73 73 75 75 74 74 74 74 74 73 73 74 74 74 74 74 73 72 71 70 71 71 71 71 71 72 72 73 65 66 71 71 70 71 72 71
66 67 70 72 72 72 72 72 73 74 75 75 74 74 74 74 74 73 73 73 74 75 75 73 73 72 71 70 71 71 71 71 71 72 67 63 64 71 71 70 70 70 71
66 67 70 72 72 72 72 72 72 73 74 74 74 74 74 74 74 74 73 73 74 75 74 73 73 73 71 69 70 70 70 70 71 69 65 65 64 69 71 70 70 70 70
68 68 71 71 72 72 72 72 72 72 72 73 74 74 74 74 74 74 73 73 74 75 74 73 74 73 71 69 69 70 70 70 70 64 64 66 66 70 70 71 70 70 70
67 69 70 71 71 72 72 72 72 71 71 72 73 73 74 74 74 73 73 73 74 74 73 73 73 72 70 70 70 69 69 69 66 64 64 66 66 70 69 70 70 69 70
67 70 70 71 71 71 72 71 71 71 71 71 72 73 73 73 73 73 73 73 73 73 73 73 72 71 70 70 70 69 69 69 66 64 64 65 69 70 69 70 70 70 70
70 71 71 71 71 71 70 70 70 71 71 71 71 71 72 72 72 72 72 73 73 72 72 72 71 71 70 70 69 68 68 68 66 62 63 64 69 69 69 70 70 70 69
66 70 71 72 72 72 72 70 70 70 70 70 70 70 70 71 71 71 71 72 72 71 71 72 71 70 70 69 69 68 67 68 65 63 63 63 69 69 68 71 71 70 70
57 65 70 72 72 73 72 71 70 70 70 70 70 70 69 68 68 69 69 70 71 70 70 71 70 70 69 69 68 68 67 64 63 63 61 66 67 68 69 71 71 70 70
37 51 66 70 71 72 69 71 71 70 70 70 70 70 70 69 68 66 67 69 70 69 68 69 69 69 68 64 64 67 65 64 63 63 62 67 67 68 68 70 70 70 70
36 38 54 67 71 71 69 69 69 70 70 70 71 70 70 68 69 68 67 68 69 69 69 69 69 68 66 64 62 63 63 64 63 62 64 66 67 68 68 69 70 70 70
45 56 59 64 68 70 70 67 69 70 70 70 71 71 71 71 70 68 66 70 68 67 68 69 69 68 67 67 66 65 66 64 62 62 64 66 66 68 68 69 70 70 70
50 53 56 58 62 66 66 68 70 70 70 70 70 70 71 71 71 70 70 68 68 69 70 69 69 68 68 68 67 66 66 66 65 63 64 65 65 67 68 68 69 70 70
47 48 50 52 55 59 60 64 68 69 69 69 69 69 69 70 70 69 70 70 69 69 69 70 70 69 68 68 67 67 67 67 66 66 64 65 64 65 67 68 68 70 71
43 44 45 48 51 54 56 58 60 62 63 62 62 61 61 60 61 69 70 69 70 70 70 70 69 69 68 68 68 68 67 68 67 67 66 65 64 63 64 66 68 69 70
40 41 43 42 46 49 52 53 53 57 56 56 58 57 57 56 57 60 64 68 69 69 68 68 68 67 67 68 67 67 67 68 67 67 67 66 65 64 63 63 65 67 68
37 38 39 41 42 44 47 50 48 51 50 49 51 50 52 52 53 54 59 60 60 65 65 66 67 67 66 66 67 67 68 67 67 66 66 65 66 66 64 63 62 64 65
36 37 38 39 41 41 41 44 45 43 46 47 45 46 48 47 49 50 52 54 57 60 62 64 64 65 64 62 64 66 66 67 67 66 65 64 64 65 66 66 66 64 62
36 36 36 38 40 38 36 37 38 39 43 44 41 45 45 46 48 48 48 50 52 53 57 59 61 63 63 61 62 63 62 60 67 66 66 64 64 65 66 66 67 65 63
38 37 37 37 38 38 36 36 37 38 40 40 39 41 43 44 46 45 47 48 49 50 52 55 57 58 61 63 61 60 58 59 63 64 66 65 65 64 65 65 65 66 66
37 37 36 36 36 38 39 36 37 37 37 36 37 37 40 42 44 46 46 46 48 48 48 51 52 54 55 58 61 60 57 55 56 64 64 65 66 64 64 64 64 64 65
38 38 37 37 36 36 37 36 37 35 34 36 36 36 39 41 41 43 44 44 45 45 47 47 47 50 51 52 56 59 61 61 57 57 62 64 64 63 63 61 61 61 61
36 36 36 36 35 35 36 37 36 36 35 35 36 37 38 39 39 39 41 41 42 42 44 44 46 47 48 48 50 53 56 60 62 59 55 58 61 61 58 58 59 59 60
34 35 35 35 34 35 35 36 36 36 35 34 35 34 34 35 37 39 38 39 39 40 41 41 42 44 44 45 47 49 51 53 57 58 57 56 56 57 58 59 59 55 57

GFSSE_sfc_dewp_135.txt.gz
Dewpoint
62 67 72 73 73 73 73 74 73 73 74 74 74 74 74 74 74 74 74 74 74 74 73 72 72 73 72 72 72 71 71 72 73 73 72 72 72 72 72 72 72 66 72
63 67 72 72 73 73 73 73 73 73 74 74 74 74 74 74 74 74 74 74 74 75 73 72 72 72 71 72 72 72 71 72 73 73 73 72 72 71 71 70 70 69 72
63 68 70 71 72 73 73 74 74 74 74 74 74 74 74 74 74 74 74 74 75 74 73 72 72 71 71 71 72 71 71 71 72 73 73 66 67 71 70 70 71 72 72
64 67 68 72 72 72 72 73 74 75 75 74 74 74 74 74 74 74 74 74 74 74 74 73 72 71 71 71 71 71 71 71 72 72 67 68 65 71 70 70 70 71 71
64 66 70 72 72 72 72 72 73 74 75 74 74 74 74 74 74 74 73 73 74 75 75 73 73 73 71 70 70 70 71 71 71 69 67 66 67 69 71 70 70 71 71
64 67 71 72 72 71 72 72 72 73 73 74 74 74 74 74 74 74 73 73 74 75 74 74 74 73 70 69 69 70 70 70 70 63 64 66 67 71 71 71 70 70 70
63 69 71 71 72 72 72 72 72 72 72 73 73 74 74 74 74 74 73 73 74 75 74 73 73 73 71 70 69 69 69 69 66 64 63 66 68 72 70 71 71 70 70
62 67 71 72 72 72 72 72 71 71 71 72 72 73 74 74 73 73 73 73 73 73 73 73 72 72 71 70 69 69 69 69 65 64 61 63 69 71 69 71 70 70 70
62 65 68 72 71 71 71 71 71 71 71 71 71 72 73 73 72 72 72 72 73 72 73 72 72 72 71 70 69 69 68 69 66 63 61 64 71 71 70 71 71 70 70
55 62 66 70 72 73 72 70 70 71 71 70 71 71 71 72 72 72 72 72 71 72 72 72 72 71 70 69 69 69 68 68 65 63 63 67 70 70 70 71 71 70 70
44 55 62 67 69 73 72 72 70 70 71 71 70 70 69 68 68 70 70 70 71 70 71 71 71 70 69 69 69 68 68 65 62 62 58 68 70 69 69 70 71 71 70
38 44 55 64 67 69 67 71 72 71 70 70 69 69 69 68 66 65 67 69 70 70 70 70 70 69 69 66 66 68 66 63 61 59 61 68 69 68 69 71 71 71 70
45 56 59 63 68 67 65 64 64 64 67 72 72 72 71 72 71 67 68 71 69 69 68 68 68 69 68 67 63 66 64 62 61 58 62 67 68 68 68 70 70 70 70
50 53 55 57 63 67 69 71 69 69 71 70 71 72 72 73 72 71 71 71 71 71 68 67 66 67 67 66 65 65 65 62 59 58 62 66 67 69 69 69 70 71 70
47 50 53 55 59 62 65 66 69 71 71 71 70 70 70 71 71 71 72 70 70 71 69 69 69 68 68 68 67 67 65 65 64 61 60 65 66 68 69 69 69 70 71
45 47 49 51 55 58 61 62 63 64 64 65 64 62 62 62 62 66 71 70 71 71 72 70 69 67 68 69 68 68 67 66 66 68 64 65 64 66 67 69 69 69 71
42 44 46 48 51 54 57 59 60 59 59 60 59 59 58 58 59 60 65 69 69 70 70 69 67 69 70 69 67 68 68 67 67 66 67 66 64 63 64 66 68 69 70
41 42 44 43 46 49 53 54 53 55 54 55 55 55 56 56 57 59 62 64 64 64 67 67 66 64 65 67 67 67 67 67 67 67 67 66 66 64 63 64 65 67 68
39 40 41 44 44 45 47 51 50 51 52 52 50 50 51 52 53 54 55 57 59 61 63 66 66 67 66 66 65 66 67 67 67 65 66 66 67 67 65 63 63 64 66
38 39 40 41 42 42 41 43 44 43 47 47 45 46 48 47 49 50 50 53 54 55 57 60 62 63 65 64 64 64 64 65 68 68 66 65 65 67 66 66 66 64 62
40 39 39 41 42 40 37 37 38 39 42 41 41 44 45 46 48 48 47 49 50 51 53 55 56 59 60 63 62 62 63 64 65 65 68 67 66 65 66 66 67 67 64
40 40 40 40 40 40 38 39 39 39 39 39 39 41 42 44 45 45 47 47 48 48 50 51 53 53 56 58 60 60 58 59 63 64 64 62 60 65 65 65 66 66 65
40 40 39 39 39 40 41 39 39 39 39 38 38 37 40 42 43 45 44 46 46 46 46 49 50 51 50 52 57 58 56 54 56 59 60 63 62 65 65 65 65 65 66
40 41 39 37 36 37 39 38 39 37 36 37 37 38 39 41 41 42 44 43 43 44 45 45 45 48 49 48 50 51 58 59 55 54 60 63 64 64 65 66 66 65 65
37 38 38 37 36 37 38 39 37 38 36 36 37 38 38 38 39 40 41 41 41 40 42 43 44 44 45 45 46 48 50 52 55 58 55 56 60 62 64 65 65 64 64
35 37 37 36 35 37 37 37 38 37 36 35 36 35 35 36 36 38 38 38 38 38 39 39 41 41 41 42 44 45 45 47 47 52 55 55 55 57 61 63 64 63 62

GFSSE_sfc_dewp_141.txt.gz
Dewpoint
68 72 73 73 73 73 72 72 72 73 73 73 73 74 74 73 73 74 74 73 74 74 73 73 73 73 72 72 72 72 73 72 72 73 73 73 72 72 72 73 72 70 72
69 71 72 73 73 73 73 72 72 73 73 74 74 74 74 73 73 74 74 74 73 74 73 73 73 73 73 73 71 71 71 72 72 72 73 72 72 71 71 71 71 71 72
68 71 71 72 73 73 73 72 72 73 73 74 74 74 74 74 73 73 73 73 74 74 73 72 72 72 72 72 70 70 71 71 71 72 72 70 71 71 70 72 72 72 72
68 69 71 72 72 73 73 73 73 73 73 73 74 74 74 74 73 73 73 73 74 74 73 72 72 72 72 71 70 70 70 70 71 71 70 70 68 71 71 72 72 72 72
67 69 70 71 72 72 73 73 73 73 73 73 73 74 74 74 73 73 73 73 74 75 74 72 72 72 71 69 69 69 70 70 69 69 68 67 68 71 71 72 72 72 71
70 70 70 70 71 72 72 73 73 73 72 72 73 73 74 74 74 73 73 73 74 75 75 74 74 72 69 68 68 69 68 69 69 67 67 68 61 71 71 71 71 71 70
70 70 70 70 70 71 72 72 72 73 73 73 73 73 73 74 74 73 72 73 73 74 74 73 73 72 71 69 68 68 67 68 67 66 66 68 68 71 71 71 71 71 70
71 70 70 71 71 70 70 71 71 71 71 72 72 73 73 73 73 73 72 72 72 73 73 73 72 72 71 70 69 68 67 67 66 66 67 66 68 70 72 71 71 70 70
70 71 70 71 71 71 70 70 69 70 70 71 71 72 72 72 72 72 72 72 72 72 72 72 72 71 71 71 69 68 67 67 67 66 65 68 69 70 71 70 71 70 70
58 59 60 67 71 71 70 69 69 70 70 70 70 70 71 71 71 72 71 71 71 71 71 71 71 71 71 70 69 68 67 67 67 66 65 66 69 71 71 71 71 70 70
55 54 55 58 62 67 70 71 69 70 70 69 69 69 69 70 71 70 70 70 71 70 70 71 70 70 70 69 69 68 67 67 66 65 64 66 69 71 71 70 70 70 70
51 53 54 56 59 62 67 69 71 70 70 70 70 70 69 69 69 68 69 68 69 69 69 69 69 69 68 70 69 68 68 67 66 65 64 66 69 71 71 70 70 70 70
49 50 53 54 57 61 64 66 66 69 69 70 65 66 70 70 70 70 69 69 69 69 69 69 69 69 69 69 69 67 67 67 66 64 63 67 69 70 70 70 70 70 70
47 47 49 51 54 58 62 64 65 65 65 63 61 61 62 63 62 64 66 67 67 67 68 68 69 68 69 69 68 67 67 67 66 64 64 66 68 70 70 71 71 71 70
45 46 47 49 50 54 60 61 60 61 61 60 58 58 57 58 58 60 61 64 66 64 66 66 66 66 67 66 66 63 63 62 67 66 65 65 67 69 70 71 71 71 71
44 44 46 46 48 52 55 58 57 58 58 55 52 53 56 55 56 56 58 62 64 64 65 66 66 64 63 63 62 64 62 63 67 67 66 66 65 66 69 70 71 71 71
43 44 43 44 45 47 48 53 54 56 56 55 51 50 52 51 51 52 55 60 57 60 61 64 64 64 62 62 62 62 62 63 67 67 67 66 66 64 65 68 69 70 70
41 42 43 43 43 44 44 49 50 52 51 50 49 49 48 50 49 49 51 52 52 54 57 58 59 62 62 60 60 60 61 64 64 65 66 66 67 66 64 64 66 67 69
40 41 42 42 42 43 42 43 44 45 48 47 48 46 47 48 47 48 47 48 49 50 50 52 53 56 59 62 60 59 60 62 63 65 65 65 66 66 66 64 63 64 66
40 41 42 42 42 42 42 42 43 43 44 44 45 44 46 46 46 47 46 47 46 46 46 47 49 51 53 57 59 60 63 64 64 64 64 64 66 66 66 66 64 64 62
41 40 41 41 40 40 40 41 41 42 42 41 43 42 43 44 43 44 45 44 43 44 44 45 45 46 49 50 55 56 58 61 62 63 64 64 64 64 65 66 66 65 64
40 40 37 37 39 39 39 39 40 42 42 39 40 39 41 40 42 40 40 40 40 41 41 41 42 43 46 46 49 51 51 54 57 60 62 64 64 64 65 65 64 64 65
39 37 36 37 38 39 39 39 38 39 38 38 37 38 37 38 38 37 37 37 37 38 38 39 39 39 40 43 42 47 48 48 50 53 55 58 61 62 62 63 64 64 64
38 37 36 37 37 37 39 38 37 36 35 37 36 35 35 36 35 35 35 35 35 36 35 35 36 37 37 38 40 43 43 45 49 48 51 52 52 55 60 61 61 61 61
37 37 36 37 37 37 37 37 36 35 35 35 34 33 33 34 33 33 33 33 33 33 33 35 33 35 36 37 38 37 39 40 42 46 45 46 49 51 55 59 62 63 63
36 36 36 36 36 37 36 35 35 33 33 32 32 32 32 32 32 32 32 33 33 33 33 34 34 34 34 35 37 37 38 38 39 39 41 41 41 44 48 51 53 57 62

GFSSE_sfc_dewp_147.txt.gz
Dewpoint
69 72 72 72 72 72 72 72 72 72 73 73 73 74 74 74 74 73 74 74 75 74 73 72 72 72 72 71 71 71 72 72 72 73 73 72 71 71 72 72 72 70 72
71 72 72 72 72 72 72 72 72 72 73 73 73 73 73 74 73 73 73 73 74 74 72 72 72 72 72 71 71 71 71 71 72 72 72 71 71 71 71 72 71 70 72
70 71 72 72 72 72 72 72 72 73 73 73 73 73 73 73 73 73 72 73 74 73 72 72 73 72 72 71 70 70 71 71 71 72 72 70 70 71 71 72 72 72 72
70 71 71 72 72 72 71 72 72 73 73 73 73 73 72 73 73 73 72 72 73 74 72 72 72 72 72 70 69 69 70 70 70 71 70 70 69 70 70 71 71 71 71
69 70 71 71 71 72 71 71 72 72 72 72 73 73 73 72 73 73 72 72 73 73 72 72 72 72 70 69 68 68 69 69 69 69 68 68 68 70 70 70 71 71 71
68 69 70 70 71 72 72 71 71 71 71 71 72 72 73 73 72 72 72 72 73 73 73 72 73 72 69 68 68 68 68 68 68 65 66 67 68 69 71 70 71 72 71
69 69 69 69 70 71 72 72 72 71 71 71 71 72 72 73 73 72 71 72 72 73 74 74 72 71 70 68 68 67 67 67 66 65 65 67 67 69 71 71 70 71 71
62 62 64 68 70 70 69 70 70 71 71 71 71 72 72 72 72 72 72 71 71 72 72 71 71 71 71 70 68 67 67 67 66 65 65 66 67 68 70 71 70 70 70
56 58 59 62 65 69 69 69 68 69 69 70 71 71 71 71 71 72 72 72 71 71 71 71 71 70 70 70 69 68 66 67 65 65 65 65 67 68 68 71 70 70 69
52 54 56 59 63 67 69 69 69 69 69 69 69 69 69 69 70 71 70 70 71 71 71 70 70 69 69 68 68 67 67 67 66 65 65 65 67 69 69 71 70 70 69
49 50 53 56 60 64 67 67 69 67 65 65 65 66 68 68 68 69 67 68 68 67 68 69 69 68 68 67 67 67 67 67 65 66 65 66 67 68 70 69 69 70 69
46 48 50 53 57 62 64 65 66 65 62 60 60 62 63 64 64 65 66 67 66 66 67 67 67 67 68 68 68 67 68 67 67 66 65 66 67 68 68 69 68 69 69
45 46 46 49 54 59 60 62 63 61 59 58 56 58 59 60 60 62 64 65 64 63 64 65 65 66 66 66 68 67 65 65 64 65 66 66 67 68 68 69 70 69 69
43 44 44 45 51 56 57 58 59 57 56 55 55 54 55 55 56 58 60 59 59 61 62 64 64 65 64 65 65 63 63 63 64 65 64 65 66 68 68 70 70 69 68
41 42 43 44 46 53 56 56 55 53 51 49 49 50 50 50 51 53 54 54 55 57 58 60 61 63 64 65 63 63 63 64 64 64 64 62 65 67 68 68 70 70 69
41 41 42 42 44 49 52 54 52 49 48 47 46 47 48 47 49 49 49 50 51 53 54 55 55 56 62 63 63 62 62 62 62 62 62 63 64 65 66 69 70 70 69
40 41 42 42 42 43 47 49 48 47 46 45 45 46 46 46 46 47 45 45 46 48 49 51 51 53 54 59 61 61 61 60 60 61 62 63 65 63 63 66 67 69 68
40 40 41 42 42 42 44 46 45 45 44 44 44 44 45 46 46 44 43 43 44 45 44 45 47 48 50 52 52 54 59 60 60 61 62 62 65 65 63 63 65 66 66
40 40 40 40 41 41 43 44 44 42 41 42 42 43 42 40 42 42 40 39 41 41 41 41 42 44 45 46 46 50 55 58 58 61 62 62 64 64 65 64 63 63 65
40 39 39 40 40 41 41 41 41 41 40 39 40 38 38 38 38 38 37 38 39 39 38 38 38 40 44 41 41 48 52 54 58 58 59 61 62 63 64 64 64 63 62
38 37 38 38 38 39 39 39 39 38 38 38 38 37 36 36 37 35 36 36 37 37 36 37 37 37 40 39 43 43 47 52 54 59 61 62 62 62 63 64 64 64 64
36 37 37 38 38 38 38 38 39 38 37 36 36 35 35 34 35 33 35 35 35 35 35 35 35 36 37 38 38 40 45 47 47 47 53 59 60 61 62 63 63 63 64
36 36 36 37 37 37 37 37 37 36 35 34 33 33 34 33 34 35 34 34 34 35 34 34 35 35 34 37 36 40 40 41 40 46 48 51 49 51 50 51 52 57 62
36 36 36 36 35 35 35 35 33 33 32 33 33 33 33 33 33 34 34 33 33 35 34 33 34 35 34 33 35 36 36 38 38 37 42 44 44 44 43 45 48 47 51
36 36 36 35 35 34 34 34 33 32 32 32 32 31 32 32 32 32 32 32 32 32 32 32 33 33 34 33 33 34 35 35 36 38 36 38 38 39 39 40 42 46 48
35 35 35 34 33 33 33 32 31 31 30 30 30 30 31 31 31 31 31 30 30 30 31 32 32 31 31 32 31 32 33 33 33 34 34 34 34 35 36 38 38 40 44

GFSSE_sfc_dewp_150.txt.gz
Dewpoint
68 71 72 72 72 72 72 72 72 73 73 73 73 73 74 74 74 74 74 74 74 74 73 73 72 71 71 70 71 71 72 72 72 72 72 72 71 72 72 72 72 69 71
70 71 72 72 72 72 72 72 72 73 73 73 73 73 73 73 73 73 74 74 75 74 73 72 72 71 71 70 71 71 71 71 71 71 72 71 70 71 71 71 71 70 71
70 71 72 71 72 72 72 72 73 73 73 73 73 73 73 73 73 73 73 73 73 73 72 72 72 72 72 70 70 71 71 71 71 71 71 70 70 71 71 71 71 71 71
70 71 71 72 71 71 71 72 72 73 73 73 73 73 73 73 73 73 72 72 73 73 72 72 72 72 71 70 69 70 70 70 70 71 70 70 70 70 70 70 71 71 71
69 70 71 71 71 71 71 71 71 72 72 72 73 73 72 73 73 73 72 72 73 73 72 71 72 72 70 69 68 68 69 69 69 70 69 69 69 69 70 71 71 71 71
69 69 69 70 71 71 71 71 71 71 71 71 72 73 73 72 72 72 72 72 73 73 72 72 73 72 69 68 68 68 68 68 68 66 68 68 68 69 70 70 71 70 71
66 66 68 69 70 70 72 72 71 71 70 71 71 72 72 73 72 72 71 72 72 73 73 73 72 71 70 68 68 67 67 67 66 65 65 66 67 69 70 71 70 70 70
59 61 62 67 69 70 70 69 69 70 70 71 71 71 72 72 72 72 72 71 71 71 71 71 71 70 70 69 68 67 67 67 66 65 65 66 66 68 69 71 70 70 70
57 58 60 63 67 69 68 68 68 69 69 69 69 69 69 70 70 71 71 71 71 71 71 71 70 69 69 70 69 68 66 67 66 65 64 65 66 68 69 70 69 69 69
53 55 58 61 64 66 68 68 67 66 66 66 67 67 68 69 69 69 69 68 68 68 69 69 69 69 69 69 68 68 67 67 67 66 65 65 66 68 69 70 70 69 69
51 52 55 58 62 64 66 67 65 62 62 61 62 63 63 63 64 66 67 66 65 66 67 67 67 67 68 68 68 68 68 68 67 66 66 66 67 68 68 70 70 69 69
48 49 52 56 59 62 64 64 62 60 58 56 57 58 60 60 61 63 65 63 63 64 65 66 65 66 66 68 68 68 68 68 67 67 67 66 67 68 68 69 70 69 69
45 46 48 54 56 58 60 59 57 56 56 55 53 55 56 57 58 60 59 59 60 61 63 64 64 65 65 65 67 67 67 67 66 66 66 66 67 69 68 70 70 70 69
43 43 45 50 54 55 56 56 54 52 52 50 50 51 52 53 54 55 54 55 55 56 56 59 60 63 63 64 66 66 64 64 64 65 65 65 65 67 69 69 70 70 69
41 42 44 48 53 54 53 50 49 47 47 47 47 48 48 49 50 50 50 51 51 52 53 54 54 56 61 63 64 64 63 63 64 65 65 63 63 65 66 68 69 70 70
40 41 43 45 50 52 50 48 46 46 46 45 46 46 47 46 46 45 44 45 46 49 48 50 50 52 54 57 62 64 63 63 63 63 63 63 62 64 66 67 68 69 70
40 41 42 43 47 47 46 45 45 45 44 44 44 44 45 45 44 43 42 42 43 44 44 46 46 49 50 52 53 53 59 62 61 61 61 61 62 62 64 65 66 67 68
40 40 41 43 44 45 44 43 42 43 43 43 43 41 40 41 42 40 39 39 42 41 41 42 43 44 45 48 47 48 51 55 59 60 60 61 62 63 63 63 64 65 66
39 39 40 41 42 43 43 42 41 40 40 40 38 37 39 38 38 38 37 38 40 39 39 39 39 41 42 42 41 43 47 52 56 59 60 61 61 62 64 63 62 62 64
39 39 39 40 41 42 41 40 39 38 38 38 36 36 36 37 36 36 36 37 38 36 36 36 36 38 41 39 38 40 46 48 52 56 58 59 61 63 63 64 64 64 61
37 37 38 38 39 39 39 38 37 37 36 35 35 34 34 35 35 34 35 35 36 35 35 35 35 36 38 37 40 39 43 48 52 51 55 57 60 62 62 62 62 64 64
37 37 37 37 37 38 38 38 37 35 35 35 34 34 33 34 34 33 34 34 34 35 34 34 34 35 35 37 36 39 41 43 44 44 49 48 49 49 46 48 49 50 53
36 36 36 35 36 36 37 36 35 34 34 33 32 32 32 33 34 34 33 33 33 34 33 33 34 34 33 35 36 37 35 36 36 43 43 45 43 43 41 43 42 45 49
35 36 35 35 34 34 34 33 32 32 31 32 32 32 32 32 32 32 32 31 31 32 32 33 34 33 33 33 34 34 35 36 35 35 39 43 38 39 40 40 43 43 43
35 35 34 34 33 33 33 33 32 31 31 31 31 30 31 31 31 31 31 30 30 31 31 32 32 31 32 32 32 33 33 33 35 35 33 35 35 35 36 35 39 41 42
35 34 33 33 32 32 32 31 31 30 30 29 30 30 30 30 30 30 29 29 29 30 30 30 30 29 29 30 30 30 29 30 29 30 31 30 30 33 31 34 38 39 39